Regional Weather Roundup
Issued by NWS Newport/Morehead, NC

Current Version | Previous Version | Text Only | Print | Product List | Glossary On
Versions: 1 2 3 4 5 6 7 8 9 10 11 12 13 14 15 16 17 18 19 20 21 22 23 24 25 26 27 28 29 30 31 32 33 34 35 36 37 38 39 40 41 42 43 44 45 46 47 48 49 50
420 ASUS42 KMHX 192125 RWRMHX WEATHER ROUNDUP FOR EASTERN NORTH CAROLINA NATIONAL WEATHER SERVICE NEWPORT/MOREHEAD CITY NC 500 PM EDT TUE SEP 19 2017 NOTE: "FAIR" INDICATES FEW OR NO CLOUDS BELOW 12,000 FEET WITH NO SIGNIFICANT WEATHER AND/OR OBSTRUCTIONS TO VISIBILITY NCZ015>017-031-032-045>047-102-103-192200- NORTH COAST CITY SKY/WX TMP DP RH WIND PRES REMARKS EDENTON CLOUDY 74 70 88 CALM 29.88R ELIZABETH CITY CLOUDY 75 70 84 NW15 29.86R KITTY HAWK CLOUDY 72 66 82 NW9G22 29.83R MANTEO LGT RAIN 73 67 82 N16G24 29.85R $$ NCZ045>047-081-094-103-104-192200- CENTRAL COAST CITY SKY/WX TMP DP RH WIND PRES REMARKS FRISCO CLOUDY 75 70 84 NW13G22 29.85R $$ NCZ095-097-098-100-101-192200- SOUTHERN COAST CITY SKY/WX TMP DP RH WIND PRES REMARKS BEAUFORT MOSUNNY 83 68 60 NW15 29.87S CEDAR ISLAND NOT AVBL JACKSONVILLE SUNNY 85 66 53 N14 29.88S PINEY ISLAND N/A N/A N/A N/A NW15 29.87R WILMINGTON MOSUNNY 86 64 47 NW10 29.89S $$ NCZ011>013-027>030-043-044-078>080-089-090>093-098-192200- COASTAL PLAIN CITY SKY/WX TMP DP RH WIND PRES REMARKS AHOSKIE N/A 79 67 65 N6 29.89S CLINTON MOSUNNY 85 67 53 NW3 29.90F ELIZABETHTOWN NOT AVBL GOLDSBORO SUNNY 85 65 51 NW10 29.88F GREENVILLE MOSUNNY 82 64 54 N9 29.91S HAVELOCK NOT AVBL KENANSVILLE SUNNY 84 64 51 NW9 29.90S KINSTON SUNNY 84 63 48 NW8 29.90S NEW BERN MOSUNNY 83 66 56 NW10G21 29.89S RICHLANDS MOSUNNY 84 67 56 VRB6 29.89F ROCKY MOUNT SUNNY 84 66 54 NW9 29.90F WASHINGTON SUNNY 82 65 55 NW9 29.88S WHITEVILLE SUNNY 84 64 49 CALM 29.90F $$ AMZ130-135-150-152-154-156-158-170-250-252-270-ANZ085-086-088-633-658-670-192200- MARINE OBSERVATIONS STATION/POSITION TIME TEMP WIND PRES WAVE SWELL AIR SEA DIR/SP/G HT/PER HT/PER (UTC) (F) (DEG/KT/KT) (MB) (FT/S) (FT/S) CHESAPEAKE LIGHT NOT AVBL 64 E VA BEACH 2050 69 71 330/ 27/ 35 1006.6 18/10 15/10 DUCK 2100 72 75 330/ 24/ 29 1009.6 2 E DUCK 2100 75 N/A 10/12 7/12 OREGON INLET 2100 73 74 310/ 17/ 23 1009.9 13E OREGON INLT 2048 74 N/A 14/14 13/14 HATTERAS CG 2100 74 76 330/ 20/ 25 1010.8 DIAMOND BUOY 2050 75 75 320/ 23/ 27 1009.8 9/ 8 5/10 CAPE LOOKOUT 2100 80 330/ 12/ 13 1011.2 BEAUFORT LAB 2100 82 74 330/ 8/ 15 1011.0 30 SE NEW RVR IN 2108 81 320/ 10/ 14 1011.6 30 SE NEW RVR IN NOT AVBL 27 SE WRIGHTSVLE 2108 81 80 280/ 6/ 10 1012.2 5 SE WRIGHTSVLE 2108 82 79 360/ 10/ 14 1011.9 225 S CAPE HAT 2050 80 80 310/ 12/ 14 1012.5 8/11 8/11 41 SE CHARLESTON 2110 80 83 260/ 4/ 6 1013.0 $$

USA.gov is the U.S. government's official web portal to all federal, state and local government web resources and services.